Theta_e
316 316 313 315 314 313 313 313 313 313 313 312 311 313 312 311 312 312 312 312 311 313 309 310 309 309 308 311 311 311 312 312 312 311 312 312 312 313 316 320 325 328 330 331 332 333 333 334 335 334 335 335 335 334 334 334 334 332 332 333 332 331 329 328 327 327 326 325 325 325 325 325 324 324 324 324 323 324 325 324 324 323 323 323 323
317 314 314 315 314 313 313 313 314 314 313 315 312 311 313 311 310 310 311 311 311 312 308 311 312 311 309 310 312 312 311 311 312 312 312 313 313 313 314 317 321 325 328 330 331 331 332 333 334 334 334 335 335 334 334 334 333 333 332 333 332 332 331 330 329 329 327 326 325 326 326 325 325 325 324 324 324 324 324 324 324 324 322 323 324
316 314 314 314 313 313 315 313 313 315 314 315 311 313 312 312 314 311 311 311 313 312 311 313 313 313 311 311 312 311 311 312 311 312 312 313 313 312 313 315 318 322 325 327 330 330 331 331 332 333 335 335 335 335 334 334 333 333 333 333 332 332 333 333 331 330 329 328 328 328 327 326 326 326 325 325 325 325 325 324 325 324 324 323 323
315 314 315 314 314 313 313 312 315 314 315 315 314 311 312 311 309 308 309 311 313 313 312 312 314 314 312 313 311 310 311 312 311 312 312 312 312 313 312 313 314 317 320 323 327 328 329 330 331 332 332 333 335 336 335 335 335 335 333 332 332 333 333 334 333 332 332 332 331 329 329 328 328 326 326 326 325 326 325 324 325 324 325 324 323
315 316 315 314 313 312 312 313 315 313 312 312 312 310 309 309 310 307 310 313 314 315 314 312 312 314 313 313 310 310 310 310 310 311 311 312 312 312 312 312 312 313 314 317 321 326 327 329 330 330 330 330 331 333 335 335 335 335 334 335 334 333 333 331 331 332 332 334 333 330 330 329 328 328 327 326 325 326 325 325 325 324 324 324 325
315 313 313 314 312 311 312 313 312 311 311 310 311 310 310 308 312 311 313 314 314 315 314 313 314 312 310 310 309 309 309 309 310 310 310 311 312 311 312 312 312 312 313 314 316 319 323 326 328 329 330 331 331 331 332 334 335 335 334 334 334 334 335 334 333 331 332 333 334 333 330 330 329 328 328 328 327 327 326 326 326 325 325 325 325
315 315 312 312 312 312 310 312 311 311 312 312 313 312 311 313 313 314 315 315 314 314 312 311 311 311 311 310 309 310 309 309 309 309 310 310 310 311 311 312 312 312 312 312 311 315 319 323 325 326 327 329 330 331 332 333 334 334 333 333 334 334 333 333 334 334 332 331 331 331 330 331 331 330 328 328 328 327 327 326 327 326 326 325 326
319 318 317 316 316 316 314 312 312 313 315 316 315 316 316 315 315 314 314 315 314 313 310 310 310 310 310 309 309 308 308 309 309 309 310 309 309 310 311 311 311 311 311 312 312 311 315 316 319 322 324 326 327 329 330 332 333 333 333 332 333 334 334 333 333 334 334 334 333 332 331 330 330 330 329 330 329 328 328 327 327 327 326 326 326
322 323 324 322 321 320 319 318 316 317 318 318 317 317 317 317 316 315 313 313 312 312 311 310 310 311 311 309 310 310 309 309 309 309 309 308 309 310 310 310 310 309 310 310 311 311 312 314 317 319 320 321 323 325 327 329 331 332 332 332 333 334 333 332 332 333 332 331 331 331 332 331 329 329 330 329 328 328 328 328 328 326 328 326 326
325 324 322 322 321 322 321 322 322 320 318 318 318 317 317 317 316 315 313 312 310 310 310 312 313 313 312 312 312 310 310 309 309 307 308 308 309 309 310 309 309 309 310 310 310 310 311 312 313 314 313 315 318 322 325 326 328 331 332 331 332 334 333 332 331 331 331 330 330 330 331 330 331 330 332 331 330 329 329 328 327 327 329 326 327
325 324 325 320 320 322 322 320 320 319 317 314 313 314 313 313 313 314 310 309 310 310 311 313 313 313 313 314 313 311 310 309 308 308 308 308 308 308 308 308 308 308 309 309 309 309 309 310 310 311 311 313 317 320 322 323 323 326 328 329 330 331 331 332 331 330 330 330 330 330 330 330 330 330 330 329 331 330 328 329 330 330 328 327 328
325 324 322 322 322 323 322 319 317 315 316 317 316 313 313 313 312 309 311 312 312 312 313 311 312 312 310 311 310 310 310 310 309 308 308 307 308 307 307 307 307 307 308 308 308 307 307 308 307 309 309 310 313 315 317 318 319 321 325 328 329 330 329 330 330 329 329 329 329 329 329 330 330 330 330 329 329 329 330 328 328 328 328 328 329
323 324 324 322 323 323 321 318 315 317 318 319 317 315 311 311 310 310 313 315 317 316 310 310 310 312 311 309 310 310 309 308 309 309 308 308 307 307 306 305 306 306 307 307 305 306 306 306 307 307 308 308 309 310 312 314 314 319 323 325 327 329 328 328 329 328 328 329 329 329 329 329 329 329 329 329 329 329 330 330 330 329 328 329 327
323 324 324 324 324 323 321 321 319 320 319 318 314 312 312 311 312 315 316 316 314 313 313 313 310 306 310 312 313 311 311 309 308 307 307 308 308 305 306 305 305 306 307 306 306 305 305 305 305 305 306 306 307 307 308 309 310 315 320 321 323 326 328 328 328 327 327 328 327 327 328 328 328 329 328 328 329 329 329 329 329 330 330 328 329
325 323 324 324 323 322 321 320 316 318 315 315 315 317 316 316 316 316 317 314 314 315 315 314 312 312 312 308 307 309 308 301 295 300 306 307 304 304 305 304 305 305 306 305 305 306 306 305 305 305 305 306 306 306 307 306 307 308 314 317 320 323 326 327 327 327 326 326 326 327 327 327 327 327 327 327 328 328 327 328 328 329 328 329 330
325 325 325 324 322 322 322 319 322 321 320 319 319 319 317 317 316 315 315 315 313 312 311 312 313 311 307 306 308 306 304 296 305 312 310 304 302 305 303 306 305 305 304 304 306 305 305 305 304 305 305 306 306 306 306 306 307 307 307 307 310 318 322 325 326 326 325 326 328 327 325 325 326 326 326 327 327 328 328 328 327 326 327 327 327
326 326 322 322 322 324 323 322 321 321 320 319 319 319 318 318 317 316 315 314 314 312 311 311 312 313 311 307 305 303 302 306 308 309 307 309 309 308 307 303 304 304 303 304 304 304 304 304 304 305 305 305 305 305 305 306 306 306 306 305 307 313 318 321 324 326 326 325 326 327 326 325 325 325 326 326 327 326 326 327 326 327 326 327 326
325 326 326 324 325 324 324 323 322 320 320 320 319 318 319 318 318 317 315 315 314 313 311 311 311 310 310 311 310 307 306 307 306 302 306 310 310 310 308 308 307 305 302 303 304 304 303 304 304 304 304 304 304 304 304 305 305 305 306 307 311 314 317 319 321 323 325 325 324 325 325 325 324 324 325 325 325 325 325 325 325 325 325 325 325
319 321 323 322 323 322 322 322 321 320 317 318 318 318 317 316 315 314 314 313 313 311 311 312 309 307 308 310 309 308 308 305 303 304 301 305 308 308 309 308 307 307 306 306 305 304 305 305 305 304 304 304 304 304 304 305 306 306 309 310 314 313 314 314 317 319 322 323 324 324 324 323 323 323 323 323 323 323 324 324 324 324 324 324 324
320 319 319 319 318 316 315 314 315 316 314 315 316 314 312 312 312 314 314 314 313 312 311 311 309 309 309 309 306 305 305 304 304 304 301 298 301 305 306 307 306 306 306 306 306 306 306 306 305 305 305 304 305 304 304 304 304 304 305 311 313 313 314 315 315 316 318 321 322 322 322 323 321 321 322 321 321 322 322 323 323 323 323 322 323
315 314 314 314 313 312 310 312 314 314 313 316 315 314 312 308 308 310 309 308 308 310 311 310 310 309 309 308 307 305 305 304 304 304 302 299 299 301 300 302 302 302 303 302 304 305 305 306 306 305 305 304 304 304 304 303 303 303 305 310 313 315 316 316 316 315 314 313 315 317 319 320 321 321 322 322 321 321 321 321 321 322 322 322 321
310 310 310 310 310 310 310 310 310 308 308 311 310 309 307 307 307 305 307 308 309 310 309 307 309 309 309 308 306 306 304 302 301 304 303 302 298 297 298 296 294 295 298 300 298 299 303 304 304 305 305 305 305 304 304 304 304 304 305 307 309 311 313 313 312 311 311 311 311 312 312 313 316 318 320 321 321 320 320 321 321 321 321 321 321
307 306 306 307 306 305 304 302 302 302 303 303 303 303 303 303 303 303 303 302 301 302 302 302 302 304 306 306 305 304 302 301 301 301 300 297 296 296 295 295 294 293 294 296 298 299 300 301 301 302 303 303 304 304 304 304 303 304 303 305 307 308 308 309 309 309 309 309 309 309 310 309 311 314 317 319 320 321 321 321 320 319 319 319 319
305 305 304 303 302 300 299 300 300 301 301 300 301 301 302 306 306 304 303 302 302 301 300 301 300 300 302 303 303 303 303 302 301 301 298 297 296 293 292 292 292 293 296 295 295 297 297 298 299 299 300 301 302 302 302 302 301 300 301 302 304 305 306 306 308 307 306 306 306 306 307 308 308 309 312 315 317 319 320 320 320 320 319 319 319
302 302 300 298 297 299 299 299 299 298 297 299 298 300 301 300 299 299 299 299 300 299 299 299 298 299 298 299 299 298 299 301 299 298 298 298 295 292 291 292 290 290 290 290 289 290 297 297 297 297 298 299 300 301 300 299 298 300 299 298 301 303 304 305 306 305 305 305 305 305 305 306 307 307 308 308 310 312 316 319 320 320 320 320 320
299 298 296 295 296 295 296 296 296 296 296 296 297 297 298 298 297 297 296 295 296 296 296 294 294 294 293 292 293 294 294 294 294 296 298 296 293 292 292 292 291 288 289 286 287 288 286 290 294 297 296 297 298 297 297 296 296 297 297 297 298 301 301 301 302 302 303 304 304 304 304 304 305 306 307 309 309 310 311 313 316 318 318 319 319
296 293 292 295 294 295 294 295 294 295 295 295 295 295 295 295 294 293 293 292 293 294 293 292 293 292 292 292 291 290 290 292 294 295 296 297 297 296 293 289 288 287 285 286 286 285 287 287 291 294 296 296 296 294 294 293 295 296 296 296 295 296 298 299 301 302 303 303 303 303 303 303 304 305 305 306 308 308 308 309 311 312 314 316 316
292 293 291 293 293 293 293 293 293 293 293 293 293 293 292 292 291 291 291 291 291 290 290 289 289 290 290 289 290 290 290 290 292 293 293 295 296 297 295 292 288 285 287 285 283 282 283 286 286 291 294 294 291 291 294 295 294 296 295 294 294 294 297 298 300 302 302 302 302 302 302 303 303 305 304 303 304 304 305 308 308 309 309 310 311
292 290 291 289 291 291 291 290 291 291 291 290 290 290 290 289 289 289 290 288 288 287 289 288 287 288 289 288 289 289 289 288 287 288 290 292 293 295 295 293 292 288 285 283 284 283 284 285 285 285 288 290 293 291 292 292 294 294 293 293 293 293 295 297 299 300 300 300 300 301 301 301 302 302 302 302 302 303 304 303 303 304 305 306 306
292 290 290 289 289 289 289 288 288 288 288 288 288 288 288 287 286 286 285 284 285 283 284 283 285 286 285 285 284 286 286 286 286 286 286 289 291 292 292 294 295 291 289 286 285 287 286 288 287 286 289 289 289 290 291 290 293 293 291 291 292 292 294 296 297 298 298 299 300 299 299 300 301 301 300 300 301 302 304 304 303 304 305 306 308
289 289 288 286 286 285 286 285 285 285 285 285 285 285 285 286 284 284 283 282 284 283 283 283 284 283 283 284 283 284 285 285 285 285 285 285 287 288 290 292 292 292 291 289 285 288 288 286 288 287 289 289 290 289 290 290 291 292 291 290 291 292 292 293 294 296 296 298 298 298 299 300 300 300 300 300 300 301 302 303 303 303 303 304 305
287 286 285 285 285 285 284 284 284 284 285 284 283 283 283 283 283 284 283 283 284 283 283 282 283 283 283 284 283 283 283 283 283 283 284 284 284 285 286 289 290 291 291 289 287 286 289 288 288 289 289 288 289 288 288 289 290 291 290 290 290 291 291 291 292 294 295 296 296 296 297 298 299 299 300 300 300 301 301 301 301 302 302 303 305
285 285 285 285 285 284 285 284 285 284 284 283 282 282 283 283 283 283 284 284 285 283 283 283 282 282 282 283 283 283 282 282 282 283 283 283 282 283 284 286 287 289 289 288 286 285 287 289 288 287 288 288 287 288 287 288 288 289 290 290 290 290 290 290 290 292 293 294 295 295 296 297 297 298 298 298 298 299 299 300 300 301 302 302 302
284 285 285 283 283 284 285 284 284 283 283 283 282 283 284 284 284 284 284 284 284 284 282 283 283 282 281 282 283 282 282 282 282 282 282 282 282 282 282 282 284 283 285 287 285 285 284 286 286 287 287 288 286 288 287 286 287 288 288 289 289 289 289 290 290 290 292 293 294 295 296 296 296 296 296 296 298 297 299 300 298 299 301 301 300
282 284 284 284 284 284 284 283 283 283 283 283 282 283 283 284 284 283 283 283 283 283 283 283 283 282 282 282 282 282 282 282 282 282 281 281 281 281 282 282 282 282 282 284 284 283 283 283 285 285 285 286 286 286 287 288 288 288 288 288 288 289 289 289 289 289 292 293 294 294 294 295 295 295 295 296 296 297 297 298 298 299 300 300 300
284 282 283 283 283 283 283 283 283 283 283 283 283 282 283 283 283 283 283 282 282 282 282 283 282 282 282 282 282 282 282 281 281 282 281 281 281 281 282 282 281 282 282 282 283 283 283 282 284 284 285 285 286 287 288 287 287 287 287 288 288 288 289 289 289 289 290 292 293 293 294 294 294 294 295 295 296 296 297 297 297 297 298 298 298
283 283 282 281 283 283 284 283 283 283 283 283 283 283 282 280 282 282 282 282 282 282 282 282 283 282 282 281 282 282 282 281 281 281 281 281 281 281 281 282 282 282 282 282 282 283 283 282 283 285 286 285 286 287 287 286 286 286 287 287 287 288 288 288 289 288 290 291 292 292 292 293 293 294 294 295 295 295 296 296 295 297 297 297 296
282 282 282 282 283 283 282 282 282 282 281 282 282 282 282 282 281 281 281 281 281 282 282 282 282 281 281 282 282 281 281 280 280 281 281 281 281 281 281 281 281 282 282 282 282 282 283 283 283 283 284 284 284 285 287 286 285 285 286 287 287 287 286 286 286 287 288 289 289 288 289 291 292 293 294 294 294 295 296 295 294 294 295 295 294
283 282 282 282 281 282 282 282 282 282 282 282 281 280 281 281 281 281 280 280 281 280 281 282 281 281 281 281 281 281 281 281 281 280 280 280 281 280 280 281 281 281 281 281 281 282 282 283 283 284 284 285 285 284 286 287 287 286 284 283 284 285 286 285 285 287 288 286 287 290 289 290 291 291 292 293 294 295 295 294 294 294 294 293 294
282 282 282 282 281 281 281 281 281 280 281 281 280 280 280 280 280 280 280 279 280 280 280 280 280 280 281 281 281 281 281 281 280 280 281 280 281 280 281 280 281 281 280 281 282 282 282 282 282 282 283 284 284 285 285 285 284 284 285 283 281 282 283 285 286 285 284 285 285 286 288 289 290 290 291 292 293 293 293 293 293 291 291 292 293
281 281 281 281 281 281 280 281 280 280 281 281 281 281 281 281 280 280 280 280 280 280 280 280 280 280 279 279 280 280 281 282 284 284 284 284 282 281 281 281 280 281 281 282 282 282 282 282 282 283 282 282 282 282 282 282 282 281 282 283 282 283 284 284 284 284 284 284 285 286 286 287 287 287 288 287 288 290 290 291 291 290 291 293 293
280 280 280 280 280 280 280 279 279 280 280 280 284 288 288 283 282 280 280 280 279 279 280 279 279 279 279 279 280 282 282 283 283 284 284 285 285 284 282 282 282 282 282 282 282 282 282 281 281 281 280 280 281 282 282 282 282 282 282 282 281 282 283 282 283 284 285 285 285 284 285 287 286 286 286 286 287 288 288 288 288 290 291 293 293
280 279 280 279 279 279 279 279 279 279 280 281 287 287 288 288 283 281 280 280 279 279 279 278 278 278 278 279 279 280 280 281 280 283 284 284 284 285 285 285 285 284 282 282 282 282 281 280 281 281 280 280 281 282 281 282 282 282 282 282 282 282 281 279 278 282 286 285 284 283 284 286 286 284 285 286 287 287 288 288 290 292 292 293 293
279 279 279 278 278 278 278 278 278 278 278 284 286 287 287 287 288 283 280 279 279 279 278 278 278 278 278 278 278 279 279 279 280 280 281 283 283 284 284 284 284 285 285 283 281 280 280 280 279 280 280 280 281 281 281 281 281 281 282 283 282 281 280 280 280 279 283 285 283 282 282 285 285 284 284 286 287 287 287 290 292 292 292 292 293
278 278 277 278 277 277 277 277 277 277 277 284 285 286 286 287 287 284 279 278 278 278 278 277 277 277 277 277 277 278 279 280 280 279 279 279 282 283 284 284 284 284 284 285 285 283 282 281 280 280 280 280 280 281 282 282 283 281 282 281 282 282 281 281 281 282 283 286 283 282 281 284 285 284 284 286 286 286 286 288 290 291 292 292 292
277 276 275 277 277 277 277 277 277 277 276 283 285 285 285 286 286 283 278 277 277 277 277 277 277 277 277 277 277 277 277 278 278 278 279 280 281 282 282 281 281 282 283 284 284 284 284 282 281 280 282 282 281 282 283 284 282 281 281 280 282 281 281 281 283 283 285 286 283 281 280 282 284 284 283 285 286 284 284 286 289 290 291 291 292
276 276 276 275 276 275 276 275 276 276 278 283 284 284 285 285 285 282 277 278 277 276 277 276 276 276 276 277 276 276 277 277 278 280 280 281 281 281 281 281 281 281 281 281 281 281 282 282 282 282 283 283 283 284 284 285 284 284 283 283 283 283 283 284 284 285 284 285 283 282 278 281 283 282 283 283 281 281 283 285 288 289 290 290 292
274 274 274 275 275 274 274 274 275 275 276 282 283 284 284 284 284 279 276 276 276 276 276 276 276 276 276 276 276 276 276 276 279 282 283 282 282 281 281 281 281 281 281 283 284 284 283 283 283 283 284 285 286 285 285 285 285 285 284 284 284 283 282 281 280 282 281 284 284 282 280 280 283 282 282 279 279 279 279 280 285 288 289 291 291
275 274 274 273 273 273 273 274 275 276 275 279 281 283 283 284 282 274 274 273 273 275 275 276 276 276 276 276 276 276 276 276 279 283 284 283 281 280 280 280 280 280 280 281 283 284 285 286 286 286 286 286 287 287 287 288 286 286 283 282 281 282 280 278 279 280 280 282 283 283 281 280 281 278 278 277 277 278 277 279 284 288 290 290 290
274 273 272 273 273 273 273 274 276 276 276 278 280 282 282 283 282 275 273 272 272 273 273 276 277 276 276 278 278 276 276 276 281 283 283 282 280 280 279 279 279 278 278 279 281 282 285 285 285 284 285 285 286 286 287 287 287 286 283 280 281 281 279 279 277 278 279 279 281 284 280 279 280 278 277 277 277 278 277 279 285 287 288 288 289
272 273 273 274 274 274 274 275 278 276 275 276 279 281 282 282 280 274 274 271 272 275 276 276 276 276 276 277 278 278 278 280 282 283 283 282 280 280 279 279 278 277 278 280 281 281 281 280 280 281 281 283 283 283 284 286 286 285 284 283 282 279 277 276 276 276 275 276 280 282 278 278 279 279 277 276 274 277 277 276 280 284 285 285 285
Wind_Speed
4 4 2 4 2 2 2 2 1 3 1 1 1 3 3 3 3 3 4 5 4 5 4 4 3 3 3 5 5 5 5 6 5 5 5 6 6 6 9 9 8 10 12 14 15 17 18 18 18 18 19 20 20 19 19 19 20 18 19 19 19 19 18 19 20 21 19 18 17 18 18 19 20 20 20 20 21 21 21 21 21 20 20 20 20
5 3 4 4 3 2 2 3 3 2 1 3 3 2 5 3 3 3 5 5 5 4 3 5 5 4 3 4 6 5 5 5 6 6 6 6 6 6 9 9 9 10 12 13 15 17 17 18 19 19 20 20 20 20 21 21 20 21 20 20 20 20 21 20 19 22 20 20 19 19 19 21 21 22 22 22 22 21 22 22 22 21 20 21 22
4 4 3 3 2 2 3 2 3 4 3 4 2 4 3 4 4 3 4 4 5 4 3 5 5 5 4 4 5 5 6 6 5 6 6 6 6 6 7 9 10 10 11 13 15 16 18 18 19 20 21 22 22 22 21 22 22 21 21 21 20 20 19 20 21 22 22 22 21 23 21 20 21 23 24 23 23 23 22 22 24 25 23 24 23
3 3 3 3 3 3 2 2 5 4 4 5 4 3 3 3 3 3 3 3 4 4 3 3 5 5 5 6 5 5 6 6 6 6 6 6 6 6 6 7 10 11 11 12 14 15 16 18 19 20 20 21 22 23 24 24 25 25 25 23 23 21 20 19 21 23 25 25 25 24 25 22 22 23 25 24 24 24 23 25 25 24 24 25 23
5 4 4 3 3 2 2 3 4 3 2 3 3 2 2 3 4 2 3 2 3 5 2 2 4 6 5 6 5 6 6 5 6 6 6 6 6 6 7 7 7 10 12 12 13 15 16 17 18 19 20 21 22 24 25 26 25 25 25 25 25 25 23 22 22 21 22 26 26 28 25 24 25 24 24 25 26 26 25 26 25 25 28 27 25
4 3 3 3 2 2 3 3 3 2 1 1 3 2 3 3 5 3 4 4 4 5 4 5 6 6 5 5 5 6 6 6 6 6 6 6 6 6 7 6 7 6 7 10 12 12 15 16 18 18 19 21 22 23 25 26 26 26 26 26 25 25 26 25 25 25 25 24 25 21 23 26 27 23 22 26 27 26 26 27 26 27 27 28 28
3 4 2 3 2 1 2 4 2 2 3 3 3 3 3 5 3 3 4 4 4 5 4 6 6 7 6 6 7 6 5 6 6 6 7 6 6 6 7 7 7 6 7 7 8 12 12 15 17 17 19 20 21 23 24 25 26 26 26 26 27 27 27 27 26 25 26 26 27 22 21 22 23 28 28 26 27 27 28 27 26 28 29 30 28
4 4 4 3 3 1 2 2 2 1 2 0 0 3 3 3 3 3 4 5 5 6 5 5 5 6 7 6 7 6 6 6 7 7 6 6 7 7 7 7 7 6 7 6 6 8 12 13 14 16 18 19 20 21 23 23 24 26 26 27 27 27 27 27 27 27 27 27 25 24 25 24 23 27 28 26 27 28 30 29 28 28 28 30 30
4 3 3 3 3 2 2 2 1 1 3 2 3 3 3 3 4 3 3 5 5 7 6 5 6 7 7 7 8 7 6 7 7 6 6 7 7 7 7 7 6 6 6 6 7 6 9 12 12 14 16 17 18 20 21 22 23 24 25 26 27 27 27 26 26 27 27 26 26 25 23 23 27 26 25 28 28 28 30 29 30 31 30 32 31
4 4 4 2 1 2 3 3 3 3 1 0 4 2 3 3 5 5 5 4 5 4 6 6 5 6 6 8 8 6 7 7 6 6 6 8 7 7 7 6 6 6 6 7 7 7 7 10 13 14 14 13 15 17 19 20 21 22 23 25 26 26 26 26 27 26 26 26 27 26 25 26 24 25 24 24 27 26 28 29 29 31 29 29 33
4 5 4 4 3 4 4 3 1 1 1 2 3 3 3 3 4 6 2 2 4 5 6 6 6 6 7 9 7 7 7 6 6 7 7 6 7 7 6 6 5 6 7 7 6 6 7 7 7 7 8 12 14 17 18 19 20 21 22 23 24 25 25 27 27 27 27 27 27 26 26 26 26 27 26 27 25 27 29 27 27 30 30 29 32
4 4 3 5 5 5 6 5 2 1 1 3 4 4 5 4 4 3 6 4 5 6 5 4 5 6 8 9 7 7 8 7 6 7 6 6 6 5 6 5 5 6 7 6 6 6 7 7 7 7 7 9 13 13 16 17 18 19 20 22 23 23 25 26 27 28 28 28 28 29 28 28 27 28 29 28 27 27 28 27 26 28 28 32 31
6 5 6 5 4 3 2 1 1 2 4 5 4 5 3 2 2 2 4 6 5 4 2 2 4 7 5 6 6 5 7 7 7 6 5 6 6 5 5 5 6 6 6 6 5 6 6 7 7 7 7 7 8 12 14 15 15 18 19 21 21 23 25 26 27 27 27 27 28 28 29 29 30 29 28 28 29 29 29 28 27 27 25 27 27
4 3 5 5 5 3 3 4 4 4 4 5 4 3 3 2 2 4 3 4 4 2 2 1 3 3 7 9 8 5 6 4 5 4 5 6 5 3 5 4 6 6 6 6 6 6 7 7 7 7 7 7 7 7 7 8 10 14 19 20 21 22 24 25 27 28 27 28 28 28 28 29 29 29 28 28 29 28 28 29 29 30 25 26 26
3 4 3 3 3 3 6 6 3 2 3 4 4 5 3 4 3 3 5 2 3 3 3 3 3 3 5 4 4 7 3 3 1 3 5 5 3 4 5 4 7 6 5 6 6 7 6 6 7 7 8 8 8 7 7 8 11 15 16 19 20 22 24 25 26 28 27 27 27 28 27 28 29 30 29 30 29 29 29 29 29 30 30 29 24
3 4 5 4 5 6 5 3 3 3 3 3 3 4 3 3 3 2 2 5 2 3 1 2 3 3 4 1 5 2 7 1 8 9 5 3 3 5 4 6 6 6 5 6 7 7 7 7 7 7 8 8 7 7 7 8 12 14 16 16 16 20 22 24 25 27 28 28 28 27 28 27 27 29 30 30 30 29 30 30 29 27 27 28 29
4 4 3 2 2 2 2 2 2 1 1 2 2 3 2 2 1 1 1 2 3 2 2 0 1 1 2 3 4 1 2 6 9 6 3 10 10 6 5 4 5 6 5 6 6 7 7 7 8 7 8 8 7 7 7 8 9 8 11 13 15 16 20 22 24 25 26 28 28 28 28 28 27 30 30 30 30 30 31 30 30 30 30 29 29
2 2 3 1 0 1 1 1 1 2 1 1 1 3 5 4 4 1 1 0 1 3 2 2 2 2 2 1 1 4 7 5 5 6 2 7 8 7 8 7 7 6 4 6 7 7 6 7 6 8 8 8 7 7 7 8 8 8 7 10 15 17 20 22 23 24 25 26 27 28 28 29 29 28 31 31 31 32 31 32 31 31 31 32 30
2 2 4 4 6 4 4 4 3 4 4 3 4 3 4 3 2 3 3 4 3 0 3 3 2 2 1 1 2 2 3 5 5 7 11 0 1 5 7 8 8 9 8 7 7 7 7 7 7 7 7 7 7 7 7 8 10 10 13 15 17 17 17 18 20 22 24 25 26 26 27 30 30 30 30 31 33 33 33 33 32 30 31 31 30
5 5 3 2 5 5 3 3 3 3 2 2 4 3 3 2 2 3 4 4 2 3 1 3 3 2 3 3 3 3 3 2 3 6 7 12 10 4 4 5 7 7 8 8 9 9 11 9 8 8 7 7 7 7 7 7 7 8 8 12 16 16 18 18 19 19 21 24 25 26 27 29 30 32 32 32 32 33 33 34 32 33 31 31 31
5 4 3 5 5 5 3 3 4 3 2 4 4 3 3 3 3 4 3 2 2 2 2 2 2 3 4 3 4 4 4 4 3 4 7 10 11 6 11 7 4 7 6 4 8 8 8 9 11 10 8 8 7 6 7 7 7 7 7 12 15 17 19 21 22 22 21 22 23 25 27 29 30 31 32 32 35 33 33 33 34 32 33 32 32
5 5 6 5 5 5 5 5 5 4 4 3 3 4 4 4 4 4 4 4 3 3 3 2 3 3 4 4 4 4 4 2 2 6 4 3 8 14 11 12 14 5 7 8 4 5 8 9 9 10 9 8 9 8 7 7 7 7 9 14 15 18 20 21 22 21 21 22 24 24 26 28 30 32 33 33 34 36 33 34 34 35 35 35 33
4 4 5 5 6 5 5 4 3 4 5 4 4 3 3 4 4 4 4 4 3 4 4 4 4 5 5 4 4 4 4 4 6 5 5 5 9 9 11 9 9 16 3 1 7 8 8 8 7 7 8 8 8 8 7 7 9 10 14 13 14 17 19 20 22 23 23 24 25 26 27 28 29 31 31 31 32 32 33 33 35 37 34 34 35
3 4 5 5 4 4 4 4 4 4 5 3 4 3 4 4 4 4 4 4 5 6 5 6 5 4 4 4 4 3 3 3 4 4 4 6 6 10 9 9 9 7 9 10 6 9 7 7 7 7 8 7 8 7 7 6 6 11 9 11 12 17 19 21 23 25 25 25 25 25 27 29 31 32 30 30 30 31 32 33 33 34 37 36 36
3 5 3 3 3 4 4 4 4 4 3 4 4 4 5 5 5 5 5 5 4 5 5 4 4 4 2 2 2 1 1 1 1 2 3 4 5 9 8 4 9 14 6 4 4 2 7 8 7 6 7 6 6 7 4 5 5 7 11 10 18 14 16 19 24 25 25 25 25 26 26 27 29 30 30 31 32 32 32 32 32 33 33 33 33
4 4 3 4 4 4 4 5 4 4 4 4 5 4 5 6 5 5 5 3 4 5 4 3 4 3 2 2 1 1 2 2 3 2 3 5 5 7 11 10 7 10 9 2 2 6 4 4 6 7 6 6 7 5 5 4 5 10 15 12 12 14 16 20 23 24 25 25 26 26 29 29 29 29 30 30 30 31 31 32 33 33 34 34 36
5 4 3 5 4 5 4 5 4 4 4 5 5 5 5 6 5 4 4 3 4 5 5 4 5 5 4 3 3 3 3 3 3 3 3 3 6 7 8 13 12 8 7 7 7 4 7 3 4 4 7 7 6 5 3 4 10 16 15 10 11 15 16 18 23 25 26 27 27 29 29 30 30 30 30 30 30 30 30 31 31 32 33 35 34
4 5 3 5 5 5 5 5 4 5 5 5 5 5 5 6 4 4 5 3 5 6 4 4 4 4 4 4 4 4 4 4 3 4 3 3 4 6 6 6 7 14 15 15 8 5 4 2 4 7 7 8 4 3 7 12 9 13 14 10 10 12 16 22 25 27 28 28 28 28 29 29 30 30 30 31 31 32 31 32 30 31 31 32 33
5 4 5 4 4 5 6 5 5 5 5 5 5 5 5 5 5 5 5 4 5 5 4 5 3 3 4 5 3 4 4 4 4 3 4 4 3 4 5 5 6 7 9 11 20 10 6 4 4 5 3 4 5 5 7 6 10 11 9 9 9 9 15 22 25 27 29 30 29 29 29 30 30 31 32 33 32 33 32 33 34 32 33 33 34
5 4 5 5 4 5 6 5 5 5 5 5 5 4 5 5 5 5 3 3 4 3 4 3 4 4 2 4 4 5 4 5 5 4 4 4 4 4 4 4 4 7 6 9 15 13 10 12 3 4 8 9 5 8 8 6 9 12 6 7 9 10 18 23 25 26 28 29 29 29 30 30 30 31 33 34 34 33 33 33 33 32 32 32 33
6 5 6 5 5 5 5 6 5 5 5 5 4 5 5 6 4 4 3 3 5 5 4 4 3 4 5 5 5 5 5 6 6 5 5 4 5 4 4 5 5 7 9 9 13 12 5 11 13 6 10 14 12 8 8 8 7 11 10 9 10 15 20 19 21 23 26 28 28 29 30 32 32 32 32 34 34 33 33 33 33 33 33 34 34
5 5 5 6 5 6 5 5 5 5 6 5 5 4 5 5 4 5 4 4 5 5 5 4 4 5 5 6 5 5 5 4 5 5 5 5 4 4 4 4 6 6 8 9 12 19 17 12 14 18 12 11 14 13 10 10 8 12 11 12 13 17 13 12 17 21 23 27 30 29 30 31 32 32 32 32 32 33 33 34 34 34 34 33 33
5 6 6 6 5 5 6 5 6 5 5 5 4 4 5 4 4 4 4 5 5 5 5 6 4 4 4 5 5 5 4 4 5 5 5 5 4 4 4 4 5 4 6 9 12 16 19 14 10 13 14 11 15 13 12 12 14 13 12 11 13 13 13 11 13 19 21 24 28 30 29 31 31 32 32 34 33 34 34 33 33 33 33 32 32
4 6 6 5 5 6 7 6 5 5 5 4 3 4 5 5 5 4 5 6 6 5 4 6 6 4 4 5 6 5 4 4 5 5 5 5 5 6 5 4 5 5 3 7 10 13 19 19 18 14 15 8 14 12 12 13 15 16 18 16 11 12 13 13 13 15 22 22 26 28 29 31 32 34 34 34 33 33 32 33 34 34 33 33 33
4 5 6 6 6 6 6 5 5 5 4 4 4 5 5 5 5 5 4 5 5 5 6 6 6 5 6 5 6 5 5 6 6 5 4 5 4 5 7 4 6 6 4 5 9 13 16 19 18 18 15 13 14 16 13 11 13 13 18 18 16 13 14 15 15 12 20 23 27 30 33 33 31 32 35 36 35 36 35 33 35 33 32 31 31
7 4 4 5 5 6 6 5 5 5 5 5 5 5 5 4 4 4 4 4 4 4 4 5 6 6 6 7 7 6 6 7 7 7 5 4 5 6 7 6 5 7 6 5 7 10 12 16 18 14 14 11 17 13 13 12 12 12 11 15 14 15 15 15 14 13 17 25 31 33 31 30 32 32 32 32 34 34 34 34 33 34 33 31 29
5 6 4 4 5 5 6 5 5 6 5 4 5 5 4 3 3 3 3 3 4 4 4 4 5 5 6 6 7 7 6 7 8 7 8 8 7 6 8 8 7 7 7 6 8 8 11 16 17 15 14 16 14 15 11 12 14 13 11 14 13 14 13 11 12 13 23 28 23 19 22 29 31 31 31 30 32 33 33 32 33 32 33 31 28
5 4 6 4 5 6 5 5 5 5 4 5 5 4 4 4 4 4 4 4 4 4 4 4 4 4 5 6 6 6 6 6 8 8 7 8 8 7 8 9 8 8 8 8 7 9 10 13 14 17 13 16 16 13 15 14 14 15 12 12 13 12 13 16 13 13 10 9 11 13 16 19 23 25 26 26 30 32 31 31 31 34 30 26 28
6 6 4 6 4 6 5 5 5 4 5 4 4 4 4 4 3 4 4 4 4 4 4 4 5 4 5 5 5 5 6 6 7 8 9 8 7 7 7 9 9 8 9 8 8 10 11 12 13 12 14 13 12 17 13 10 14 13 16 14 12 11 13 14 18 10 11 16 14 19 20 21 23 20 21 25 29 28 29 30 32 30 24 26 27
6 5 6 6 5 6 5 5 4 4 5 5 4 4 3 3 3 4 3 3 4 4 4 4 4 4 4 4 5 5 5 6 6 7 7 8 7 7 6 6 8 9 10 9 9 9 10 11 12 12 10 13 12 9 11 12 13 10 8 12 16 18 14 14 13 16 17 14 13 10 13 17 16 17 22 22 24 26 26 26 25 25 27 28 29
5 5 5 5 6 6 5 5 5 4 5 4 3 3 4 4 4 4 3 4 4 5 5 5 4 4 4 4 4 5 6 10 12 11 10 10 8 9 8 6 7 9 10 10 9 9 10 10 13 9 11 13 12 13 13 12 12 14 16 13 16 14 16 14 12 12 13 15 14 11 11 12 13 12 11 11 14 21 21 23 21 24 27 26 26
5 5 6 6 6 5 5 5 4 4 4 3 5 9 7 4 4 3 3 3 3 4 5 6 5 4 5 5 5 9 11 11 11 12 14 14 13 10 9 9 9 10 10 11 10 9 10 13 11 12 14 15 13 12 12 13 13 14 14 13 14 15 13 14 14 12 12 11 12 13 13 13 13 14 11 12 14 15 13 12 13 19 22 28 30
6 5 6 7 6 4 5 4 4 4 3 3 9 9 10 10 5 3 3 4 4 4 4 4 6 6 5 5 6 7 8 8 7 11 15 16 16 17 18 17 14 11 11 12 12 11 12 11 12 12 11 14 14 13 14 16 13 15 16 14 15 15 14 15 17 13 8 11 13 14 15 15 12 15 13 13 13 13 12 13 19 23 25 27 29
5 5 7 6 5 4 4 4 4 4 4 6 9 9 9 9 7 4 3 4 4 4 4 4 5 5 6 6 5 5 5 7 8 8 10 14 16 17 18 17 17 16 16 13 12 12 11 13 13 13 12 11 15 14 12 11 14 15 13 13 13 16 14 14 13 13 13 9 13 14 17 15 10 12 14 14 11 12 13 18 22 26 27 28 27
4 6 5 5 5 3 4 4 4 3 3 6 9 9 9 9 9 6 3 3 3 3 4 4 5 5 5 6 6 5 5 10 8 8 8 9 13 17 17 17 16 16 16 19 20 15 13 13 14 14 13 14 14 13 13 14 15 16 16 14 14 13 16 16 15 15 14 10 13 15 16 15 10 12 13 13 11 10 13 14 19 22 26 24 31
5 5 4 5 4 4 4 4 4 4 4 7 10 10 9 9 8 7 2 3 3 3 4 5 4 5 5 6 6 6 5 6 7 9 9 10 11 11 10 9 9 11 15 17 19 20 16 13 13 14 13 13 13 16 16 15 16 17 17 17 16 19 16 15 18 17 17 12 12 13 14 15 10 11 13 13 9 10 11 15 21 22 22 28 6
5 5 4 4 4 4 4 4 5 5 4 9 9 9 9 9 9 6 3 3 3 3 4 4 5 5 5 5 4 5 6 6 7 11 13 13 13 12 12 12 11 9 8 9 10 10 10 10 12 13 15 15 15 16 15 13 16 15 14 18 18 16 18 17 16 16 15 9 10 10 14 14 10 11 13 10 9 11 9 13 19 18 20 7 24
3 4 3 4 4 4 4 4 5 6 4 9 9 9 9 9 9 4 3 3 3 3 4 4 4 5 4 5 5 6 6 6 10 19 18 15 12 14 15 14 14 11 9 10 17 17 16 15 14 15 14 17 22 20 20 18 16 16 16 14 13 13 14 15 15 13 13 8 7 9 11 14 11 10 10 5 7 9 10 10 15 17 7 22 23
5 4 4 4 3 4 4 4 5 4 3 7 8 9 10 11 6 3 3 3 3 3 4 4 4 4 4 4 6 7 6 6 12 20 21 21 12 12 14 15 13 14 12 12 16 21 23 25 26 27 28 29 28 29 29 31 23 20 16 14 14 14 15 12 12 11 10 8 9 9 10 12 9 3 7 4 5 8 11 13 8 8 21 22 24
6 4 4 5 4 3 4 4 4 4 3 5 8 9 10 11 8 4 3 3 3 3 3 4 4 4 4 9 9 7 8 8 16 20 21 17 11 11 12 14 16 15 14 12 12 13 21 23 25 26 25 23 24 25 24 24 25 21 15 16 16 15 13 14 13 12 14 12 8 7 10 12 10 3 5 4 4 5 10 12 9 12 19 19 24
5 4 4 6 5 4 3 4 5 4 2 4 8 10 10 10 7 2 4 3 4 4 5 5 5 5 6 7 11 12 11 14 22 21 23 17 11 10 11 11 13 15 13 12 14 15 16 19 18 18 17 18 16 14 14 23 23 21 13 11 12 13 15 14 14 13 15 12 5 10 12 11 10 6 1 4 4 3 8 9 9 8 7 8 12
Wind_Direction
196 217 192 221 243 233 221 241 267 268 266 281 243 278 296 298 302 299 311 305 312 303 312 307 295 291 314 305 303 303 298 298 294 295 296 289 287 281 280 280 275 276 278 281 284 287 288 289 289 291 292 294 296 291 288 280 276 281 284 283 281 271 264 261 261 264 263 259 253 256 255 258 261 261 263 261 259 257 251 248 251 254 251 254 252
203 206 190 226 230 232 226 245 241 264 218 256 241 239 259 276 276 274 281 288 296 292 330 308 309 308 317 304 298 295 293 293 300 296 291 291 282 281 281 278 275 275 275 276 279 282 283 285 287 288 289 289 288 289 291 293 293 290 289 290 286 277 267 257 257 261 261 257 252 257 255 258 255 257 257 257 259 257 257 257 254 249 253 249 247
193 195 212 226 237 227 237 236 259 253 219 246 219 224 241 248 257 269 279 287 283 281 294 298 299 306 303 297 288 308 297 293 290 287 290 287 287 282 283 281 274 271 272 274 277 279 281 283 285 286 287 288 288 290 288 288 288 288 287 284 281 281 282 275 267 266 260 255 251 259 254 243 249 252 255 254 253 255 257 255 249 252 250 242 239
190 189 198 216 232 232 253 221 240 243 220 233 238 226 235 250 254 247 245 250 276 284 269 276 294 291 299 291 296 293 282 285 287 287 284 284 282 285 282 278 278 272 270 271 273 275 277 280 282 285 286 286 288 289 290 291 292 293 293 290 291 286 277 268 270 268 263 262 264 265 262 260 258 253 253 255 255 256 253 249 253 251 242 241 240
202 199 199 211 219 227 249 246 259 268 243 243 253 239 248 269 272 255 267 251 288 293 295 266 275 278 280 278 290 283 281 287 280 282 280 280 283 282 280 279 278 281 276 271 271 274 276 278 279 281 283 284 285 287 289 290 290 289 288 291 292 290 287 281 267 260 263 262 262 269 263 261 261 260 257 255 252 253 253 248 251 252 252 256 257
168 189 193 200 204 211 237 260 257 243 214 206 235 235 245 268 263 304 289 315 296 288 306 301 287 283 282 291 296 280 292 291 277 275 277 276 275 277 276 279 279 277 280 279 274 273 275 275 277 278 280 283 286 288 288 289 292 292 293 292 291 291 292 288 286 282 274 273 273 271 271 263 261 256 250 253 256 258 253 253 252 251 250 250 254
168 145 146 146 155 173 212 233 229 211 213 204 206 217 219 241 268 287 291 279 271 278 281 275 279 298 299 303 288 287 288 275 282 282 278 279 283 276 277 277 278 278 274 277 280 277 272 276 281 282 282 283 284 287 289 290 290 292 294 295 295 294 291 291 290 286 283 284 286 281 271 265 264 264 259 249 252 252 251 256 260 251 249 251 250
176 156 147 165 152 175 229 233 235 201 227 159 188 261 258 270 248 213 259 273 280 290 270 277 303 296 291 293 286 287 284 285 283 282 281 287 278 279 279 277 277 275 279 282 283 285 281 284 283 282 282 284 285 287 289 290 291 291 291 294 295 296 297 296 295 294 292 289 286 284 281 279 269 268 260 253 247 247 250 251 251 254 253 251 250
180 172 142 151 149 169 235 227 210 202 223 182 217 236 244 252 268 260 257 276 280 276 290 296 288 283 288 293 287 290 287 280 280 281 292 281 280 282 283 281 281 284 287 285 286 284 292 289 283 284 285 285 286 288 289 290 291 291 291 292 291 291 293 294 297 298 298 296 294 292 288 281 283 279 271 263 265 261 257 249 248 250 252 252 251
178 170 147 165 173 207 245 223 193 194 198 127 247 221 215 216 254 252 229 235 273 290 289 288 282 288 292 282 281 281 273 279 281 282 278 282 286 283 284 291 298 292 290 286 286 293 293 292 291 289 287 285 287 288 290 292 293 294 295 294 294 293 294 297 298 299 299 299 298 296 292 289 284 282 279 274 270 268 261 259 258 257 252 251 252
197 191 191 196 221 246 250 277 290 187 179 214 242 236 237 227 234 269 290 231 250 257 259 274 290 286 283 279 286 278 279 276 275 276 275 272 279 286 303 291 300 291 288 287 287 292 291 290 292 294 292 292 292 293 293 293 294 294 294 295 294 295 296 296 296 297 298 299 298 298 297 295 292 289 285 281 274 269 269 265 259 256 254 251 251
225 238 217 219 224 233 236 226 211 158 227 275 274 254 240 247 259 254 284 285 233 250 263 284 281 282 278 282 271 277 280 270 271 267 279 282 280 292 286 299 294 288 284 281 288 285 282 283 286 283 288 289 288 289 289 290 290 290 291 291 293 295 297 296 296 297 297 298 299 299 298 297 297 297 295 294 290 285 283 277 268 264 260 256 254
214 213 223 228 232 244 249 278 194 190 204 233 241 255 253 239 263 225 256 276 290 261 259 220 297 297 272 262 286 261 260 272 267 278 280 280 283 282 287 302 288 286 282 290 289 282 279 283 282 286 286 285 284 281 280 283 285 287 288 289 292 296 299 300 300 299 299 298 297 297 297 298 299 297 295 294 294 294 291 289 286 277 269 266 260
229 220 224 210 221 222 224 240 221 222 224 230 248 264 263 256 237 288 215 246 272 273 266 58 305 264 317 319 303 284 261 250 276 289 285 279 275 282 285 284 285 284 288 300 295 291 288 284 285 287 285 284 282 286 287 288 286 284 288 290 292 292 294 297 299 300 300 299 299 299 298 295 294 295 296 297 294 293 293 292 292 291 286 277 268
220 218 212 204 214 222 234 235 231 226 262 278 256 269 250 255 244 240 291 254 261 294 270 172 266 306 293 293 304 335 333 342 337 289 271 272 307 294 282 279 278 278 287 301 292 292 290 283 285 287 286 285 286 288 291 288 287 288 290 292 292 294 297 298 300 302 302 301 300 299 299 301 301 299 298 297 297 295 294 293 292 291 290 288 283
216 211 212 206 212 221 245 267 254 220 228 283 314 292 294 277 271 273 259 301 327 312 5 207 209 352 339 345 303 323 320 314 331 317 312 276 248 272 271 277 280 289 300 290 288 292 286 285 287 285 284 284 286 288 285 284 285 288 288 288 289 291 295 299 301 304 304 303 302 302 302 302 300 300 300 299 299 298 299 299 296 297 296 294 292
223 230 216 252 332 321 300 271 247 194 171 218 260 301 315 296 330 346 219 226 305 310 309 157 260 191 245 333 326 339 224 310 333 294 1 340 318 307 296 283 280 280 286 285 287 285 284 290 285 286 284 284 285 283 282 281 286 284 287 287 286 287 292 294 298 301 304 304 303 302 302 302 302 301 301 300 300 299 298 298 301 302 300 299 296
227 205 201 148 87 25 52 85 103 72 78 136 105 74 49 33 11 333 321 268 220 303 298 323 283 270 247 260 286 305 328 323 342 305 344 276 273 299 319 316 307 311 293 288 292 289 285 282 281 284 286 286 283 282 278 281 282 284 284 286 287 288 294 295 296 299 303 304 305 305 304 303 303 305 304 303 301 299 298 297 297 297 298 298 299
103 100 97 99 93 84 75 83 85 94 87 82 78 73 76 67 48 73 74 57 58 8 326 313 332 69 206 234 294 284 302 329 320 310 313 345 244 333 315 308 323 326 321 310 303 303 292 282 289 283 282 283 284 282 283 282 283 284 285 287 288 291 291 290 292 295 299 302 305 306 305 305 304 303 302 302 302 300 299 297 294 294 295 296 296
88 73 69 117 102 86 78 83 92 70 98 122 100 87 92 76 63 65 69 66 92 94 30 1 47 313 345 342 337 306 319 271 266 298 300 309 306 273 231 322 327 306 303 311 314 311 308 306 300 296 288 281 281 280 279 285 284 285 286 284 289 291 292 291 293 294 300 305 306 306 305 305 305 304 302 301 298 298 298 298 295 293 292 292 292
54 77 82 64 65 82 75 73 73 70 90 72 71 90 90 79 52 55 65 63 63 87 75 27 26 10 355 353 351 357 338 325 330 10 324 313 305 325 317 309 278 277 290 269 280 289 299 303 306 303 298 296 292 288 289 288 288 286 288 290 296 304 309 312 315 314 314 312 310 309 307 307 306 304 302 300 299 297 295 295 296 295 293 291 291
52 48 60 55 64 61 66 65 61 51 58 75 79 69 56 57 51 54 44 53 24 44 67 43 37 27 38 15 360 342 338 346 9 343 309 271 304 318 319 325 323 295 296 277 266 299 286 283 288 294 302 305 308 309 306 303 302 303 304 317 323 323 322 322 321 318 313 313 312 310 309 308 307 305 302 301 300 298 297 294 292 291 290 290 291
76 63 63 67 67 62 76 77 74 76 65 59 53 78 88 85 70 57 58 62 41 53 50 43 45 43 37 32 21 15 6 329 328 342 338 318 320 305 311 312 307 310 263 259 306 278 268 272 269 275 282 289 294 298 300 301 306 316 325 330 328 327 322 320 319 317 315 313 311 311 309 308 305 304 303 302 299 297 296 296 295 294 291 290 290
82 84 56 51 76 76 75 76 65 64 63 64 60 54 59 67 62 53 41 40 44 50 47 40 35 45 39 28 32 17 11 342 335 334 323 312 307 293 302 314 297 220 290 304 246 255 259 261 263 271 271 274 279 279 286 306 313 315 325 327 322 320 319 318 316 314 312 311 310 308 308 306 306 304 303 303 301 299 297 294 293 291 290 290 290
64 82 70 76 90 86 76 78 77 69 83 73 63 64 72 74 70 62 53 48 54 64 64 52 58 61 67 30 45 22 8 334 308 310 323 315 307 307 292 298 291 304 291 272 299 245 237 252 265 260 263 269 278 284 304 315 304 308 323 323 320 316 316 315 313 311 309 307 307 307 307 306 304 303 302 300 297 295 295 296 295 294 292 295 295
131 121 137 104 86 100 96 84 83 83 77 78 73 70 76 79 74 69 59 47 61 68 69 62 57 49 59 43 358 331 292 316 314 305 317 326 321 319 314 309 281 281 305 296 277 328 317 278 258 255 271 279 273 288 311 303 307 316 322 314 307 307 307 307 307 306 304 304 305 305 305 304 303 302 300 299 298 296 293 293 293 292 291 291 292
132 133 121 109 95 83 86 87 79 75 73 73 70 72 76 80 74 81 64 43 68 68 53 44 37 10 2 8 333 331 311 314 342 318 311 303 309 319 329 328 322 302 294 290 293 240 254 284 269 288 279 263 276 297 278 302 314 318 317 312 305 306 306 305 308 308 307 307 307 306 304 302 301 301 300 300 299 297 296 293 291 290 289 289 290
117 118 91 99 106 98 85 82 78 73 68 71 73 75 75 83 72 63 57 14 59 55 42 41 40 9 344 334 7 329 326 331 338 319 314 309 314 317 318 319 321 317 324 316 311 290 255 292 294 246 253 277 273 278 328 322 312 308 312 311 307 307 311 311 309 309 308 308 308 307 304 303 303 302 302 300 299 298 297 296 294 293 292 290 289
121 104 105 89 96 104 95 83 74 72 72 67 73 77 78 77 73 64 53 5 55 50 25 41 17 1 355 357 335 311 321 337 332 331 319 317 313 305 305 302 307 302 317 314 310 321 299 302 292 293 218 271 315 313 308 289 302 301 298 300 301 301 304 306 306 306 306 306 305 305 303 303 302 302 301 300 299 298 296 295 294 293 293 291 290
111 110 108 105 95 91 94 83 74 68 69 64 68 71 79 72 73 67 47 53 64 53 40 45 10 8 354 347 353 331 329 343 332 325 329 317 315 311 304 297 290 288 285 298 297 301 303 306 212 265 312 299 294 298 305 298 289 300 296 299 301 300 301 302 303 304 303 303 304 305 304 301 301 300 300 299 298 297 296 295 295 294 292 292 290
115 118 110 105 98 84 87 82 73 71 64 61 63 63 66 73 55 64 32 53 53 34 8 26 6 19 2 350 345 337 334 335 331 328 326 329 313 309 295 297 291 279 285 285 293 287 302 304 301 291 298 306 308 305 304 307 304 305 306 301 300 297 299 300 297 298 301 304 306 306 305 302 300 299 298 298 297 296 295 295 294 294 293 292 291
113 113 111 109 103 97 86 92 82 72 66 52 55 61 63 67 62 52 20 40 44 31 356 4 5 7 1 347 334 326 325 328 321 318 314 308 305 301 294 290 289 281 282 284 275 283 295 293 297 300 304 305 308 310 318 311 305 304 306 306 302 302 301 298 298 297 299 303 306 306 304 303 301 299 298 298 298 298 297 296 295 294 292 290 289
124 114 109 107 107 107 101 84 82 77 71 58 47 65 65 60 46 44 29 33 29 9 8 349 358 360 348 333 319 316 320 320 311 314 314 310 312 298 290 292 285 269 275 280 281 287 293 291 286 289 304 319 309 312 318 318 316 313 306 303 306 304 303 301 299 299 297 299 303 304 304 303 302 299 298 299 299 299 298 296 294 293 292 293 294
121 118 114 118 111 105 95 92 89 85 80 73 53 60 53 42 29 31 26 19 14 356 0 342 336 342 336 326 317 318 320 312 310 312 309 314 315 312 304 292 284 279 250 276 280 286 290 302 302 301 299 311 295 308 316 320 315 316 313 311 306 302 301 302 301 300 298 296 300 305 307 305 302 299 299 298 298 298 298 298 298 296 294 295 295
107 119 128 120 114 108 103 102 96 85 79 76 60 62 55 51 34 17 20 21 9 350 344 332 329 330 334 332 318 321 326 327 317 305 305 303 300 298 298 294 287 281 267 245 278 286 291 293 296 301 303 312 305 309 314 310 306 309 307 309 310 307 303 300 299 295 297 299 302 306 306 304 301 300 299 298 297 297 296 296 296 296 297 298 297
122 119 113 116 110 107 101 93 83 80 66 58 60 61 62 52 44 21 8 10 2 347 332 324 327 334 329 327 322 329 330 325 321 322 320 310 310 307 301 297 286 287 279 261 248 271 285 292 296 303 310 319 310 309 310 308 302 300 296 296 295 295 298 298 297 299 301 299 301 302 305 303 300 298 299 298 296 296 297 297 297 298 298 296 298
122 113 96 98 102 89 87 85 78 69 67 64 59 49 48 53 51 32 12 4 353 341 327 316 315 320 318 313 311 322 327 322 318 323 322 322 318 312 306 304 299 291 288 275 271 266 278 283 291 296 305 301 298 299 305 308 308 302 295 293 297 298 294 288 293 296 297 296 298 296 293 294 295 295 296 297 296 297 295 296 297 300 300 297 300
111 104 110 91 94 92 85 81 82 83 76 71 67 58 45 34 31 24 14 0 347 335 323 316 311 309 308 307 310 315 318 314 309 308 310 311 313 309 304 301 298 294 292 288 277 276 273 279 286 296 298 301 305 299 310 311 306 306 304 303 300 301 304 303 295 291 286 297 309 302 294 287 287 286 288 291 293 294 294 297 298 302 301 301 298
117 111 99 94 72 87 82 80 74 78 77 71 66 53 42 37 34 21 4 353 336 325 309 308 308 307 304 304 308 310 308 304 301 304 307 307 303 299 295 295 296 296 295 294 293 288 282 284 283 278 290 288 291 303 309 306 304 303 307 310 301 299 301 304 303 300 299 300 295 290 287 285 283 285 289 289 291 290 292 293 297 298 295 295 292
102 100 96 93 85 78 79 81 78 79 75 65 53 47 41 37 30 15 10 345 332 320 311 308 308 307 307 307 305 300 296 294 294 294 297 300 301 298 287 283 298 304 303 301 295 289 287 284 283 293 287 295 301 286 298 308 307 301 303 308 306 309 304 301 296 305 307 303 305 301 286 287 290 288 290 290 287 287 286 289 291 294 293 291 290
91 89 86 90 92 82 71 74 73 67 72 65 56 41 40 27 37 17 0 345 332 323 321 322 322 320 315 305 300 297 292 292 292 293 292 298 303 308 308 300 299 299 300 300 295 291 287 287 292 289 295 300 300 307 311 315 315 310 309 305 297 294 299 298 293 289 294 303 305 300 297 294 298 295 290 286 282 283 284 283 289 290 290 288 289
93 90 86 79 79 83 83 72 72 71 67 60 30 36 33 31 23 12 357 335 329 325 322 322 322 323 318 313 305 301 302 301 301 302 311 308 306 304 305 310 309 306 304 302 300 298 299 301 300 308 309 306 308 311 304 300 298 299 298 302 297 302 299 296 292 293 297 296 299 302 302 302 301 297 291 286 283 279 280 284 277 288 284 290 294
90 89 91 83 78 78 86 87 78 73 61 39 35 33 27 21 22 9 3 344 338 329 321 316 318 322 319 315 309 307 306 304 300 302 316 317 314 312 312 310 308 308 310 311 310 311 310 301 302 301 295 295 297 299 298 303 302 300 300 296 294 300 302 305 304 300 288 307 306 303 302 301 301 296 295 286 284 282 282 279 286 282 287 292 292
92 94 84 90 90 90 91 89 79 67 51 29 34 31 25 20 13 33 30 351 328 321 314 316 313 315 314 314 310 305 304 305 310 311 311 315 317 319 318 317 315 311 308 306 308 306 306 303 300 295 295 294 298 302 300 301 299 297 293 294 298 301 300 298 294 296 302 313 305 302 300 300 303 293 293 289 285 281 283 290 287 288 294 294 291
101 88 97 97 96 97 94 88 77 60 57 21 34 31 24 20 16 46 22 342 325 311 313 311 310 309 310 309 309 307 303 311 311 309 309 309 312 311 309 305 302 299 298 303 300 296 295 290 291 293 295 299 295 293 295 294 294 294 296 296 295 294 294 292 292 294 296 307 304 298 297 301 310 302 296 293 289 287 295 290 290 293 297 293 298
101 103 98 99 103 94 89 87 78 64 47 21 32 27 23 17 18 35 359 343 325 316 311 310 307 305 302 306 308 312 311 315 315 314 313 310 308 307 304 302 298 294 298 296 293 292 286 283 285 287 289 286 287 290 291 292 295 294 296 295 295 297 296 292 291 289 289 297 293 298 296 299 312 305 299 297 308 305 294 299 299 299 297 300 246
121 119 118 106 96 93 82 79 78 59 34 27 29 24 21 15 19 26 4 343 331 314 305 296 294 293 295 294 297 303 315 316 312 320 320 319 318 315 312 308 303 294 289 292 296 301 299 293 287 285 288 290 288 291 292 293 292 293 296 294 293 292 290 286 282 282 285 284 291 301 298 303 313 306 298 309 323 306 312 309 306 300 303 168 130
102 109 88 89 92 85 84 81 75 60 27 27 25 23 17 14 19 23 6 350 332 313 300 290 289 290 291 297 305 314 315 314 312 323 326 326 321 318 316 314 313 309 299 304 312 310 305 302 295 291 294 299 304 305 306 306 304 300 298 293 291 287 290 295 295 299 296 305 306 311 300 301 310 303 304 322 322 321 324 315 298 294 182 131 118
116 103 107 96 94 90 83 82 78 71 43 17 21 20 18 12 23 20 359 350 320 301 294 288 286 289 297 307 315 317 316 312 318 328 331 331 322 319 316 313 311 313 314 312 308 306 303 303 305 308 308 309 308 308 309 308 304 302 303 300 296 299 300 299 302 308 299 316 314 302 305 299 320 335 302 315 335 326 339 324 316 142 130 116 112
117 124 122 101 81 79 78 75 81 77 54 13 19 19 19 13 16 24 350 332 311 289 284 290 304 307 303 315 318 316 317 310 326 333 333 332 320 317 313 312 315 318 313 312 311 309 310 313 314 313 309 303 301 304 301 299 300 303 303 301 308 315 317 317 311 308 305 310 315 341 317 301 312 305 301 295 330 1 350 344 14 91 98 102 101
118 120 104 100 93 76 73 73 67 76 69 13 14 20 16 12 14 39 354 325 306 315 328 330 333 321 314 311 317 328 325 327 331 333 333 332 320 316 314 312 313 309 308 311 315 318 323 323 320 319 316 315 312 309 306 310 309 306 309 322 333 332 320 314 311 311 307 308 339 355 313 308 316 305 294 328 5 340 8 347 7 30 53 75 89